GFSMA_prec_radar_057.txt.gz
Reflectivity
5 10 -15 14 -14 -15 -18 -20 -14 -14 -20 -20 -20 -20 -20 -20 -20 -20 -20 -20 -20 -20 -20 -20 -20 -20 -20 -20 -20 -20 -20 -20 -20 -20 -20 -20 -20 -20 -20 -20 -20 -20 -20
14 -20 -1 1 -20 -20 -20 -20 -20 -20 -20 -20 -20 -20 -20 -20 -20 -20 -20 -20 -20 -20 -20 -20 -20 -20 -20 -20 -20 -20 -20 -20 -20 -20 -20 -20 -20 -20 -20 -20 -20 -20 -20
-2 2 4 2 -20 -20 -20 -20 -20 -20 -20 -20 -20 -20 -20 -20 -20 -20 -20 -20 -20 -20 -20 -20 -20 -20 -20 -20 -20 -20 -20 -20 -20 -20 -20 -20 -20 -20 -20 -20 -20 -20 -20
-7 11 4 -20 -20 -20 -20 -20 -20 -20 -20 -20 -20 -20 -20 -20 -20 -20 -20 -20 -20 -20 -20 -20 -20 -20 -20 -20 -20 -20 -20 -20 -20 -20 -20 -20 -20 -20 -20 -20 -20 -20 -20
4 -3 -20 -20 -20 -20 -20 -20 -20 -20 -20 -20 -20 -20 -20 -20 -20 -20 -20 -20 -20 -20 -20 -20 -20 -20 -20 -20 -20 -20 -20 -20 -20 -20 -20 -20 -20 -20 -20 -20 -20 -20 -20
-20 -20 -20 -20 -20 -20 -20 -20 -20 -20 -20 -20 -20 -20 -20 -20 -20 -20 -20 -20 -20 -20 -20 -20 -20 -20 -20 -20 -20 -20 -20 -20 -20 -20 -20 -20 -20 -20 -20 -20 -20 -20 2
-20 -20 -20 -20 -20 -20 -20 -20 -20 -20 -20 -20 -20 -20 -20 -20 -20 -20 -20 -20 -20 -20 -20 -20 -20 -20 -20 -20 -20 -20 -20 -20 -20 -20 -20 -20 -20 -20 -20 -20 -20 -6 -8
-19 -20 -20 -20 -20 -20 -20 -20 -20 -20 -20 -20 -20 -20 -20 -20 -20 -20 -20 -20 -20 -20 -20 -20 -20 -20 -20 -20 -20 -20 -20 -20 -20 -20 -20 -20 -20 -20 -20 -20 -9 -20 -6
-20 -20 -20 -20 -20 -20 -20 -20 -20 -20 -20 -20 -20 -20 -20 -20 -20 -20 -20 -20 -20 -20 -20 -20 -20 -20 -20 -20 -20 -20 -20 -20 -20 -20 -20 -20 -20 -20 -20 -20 -20 -20 -20
-20 -20 -20 -1 -20 -20 -20 -20 -20 -20 -20 -20 -20 -20 -20 -20 -20 -20 -20 -20 -20 -17 -20 -20 -20 -20 -20 -20 -20 -20 -20 -20 -20 -20 -20 -20 -20 -20 -20 -20 -20 -20 -20
-20 -20 -20 -20 -20 -20 -19 -20 -20 -20 -20 5 18 15 14 6 24 12 -0 -13 -9 -9 -20 -20 -20 -20 -20 -20 -20 -20 -20 -20 -20 -20 -20 -20 -20 -20 -20 -20 -20 -20 -20
-20 -20 -20 -20 7 -20 22 -20 20 -20 -6 4 -20 16 12 -18 4 34 9 -19 7 22 -3 -20 -20 -20 -20 -20 -20 -20 -20 -20 -20 -20 -20 -20 -20 -20 -20 -20 -20 -20 -20
-20 -20 -20 11 -17 28 26 -14 -20 -17 0 36 -20 -20 3 32 25 21 22 7 -4 8 13 -6 3 -12 -20 -20 -20 -20 -20 -20 -20 -20 -20 -20 -20 -20 -20 -20 -20 -20 -20
3 -20 36 8 30 21 18 13 -15 18 -17 14 -2 7 -16 2 35 32 18 -12 14 12 -18 12 23 16 -4 -20 -20 -20 -20 -20 -20 -20 -20 -20 -20 -20 -20 -20 -20 -20 -20
8 -15 33 11 31 29 25 -7 -20 -20 -20 -18 27 31 27 34 27 6 11 3 7 16 -20 -20 -20 -20 -20 -20 -20 -20 -20 -20 -20 -20 -20 -20 -20 -20 -20 -20 -20 -20 -20
-5 -9 15 32 29 -12 -20 -19 -9 6 -2 -17 16 -2 -16 3 10 23 12 18 -0 -14 -20 -20 -20 -20 -20 -20 -20 -20 -20 -20 -20 -20 -20 -20 -20 -20 -20 -20 -20 -20 -20
-17 33 8 -14 -20 -20 -10 -11 13 5 -2 -6 3 24 26 20 28 -4 15 -20 -20 -20 -18 -20 -20 -20 -20 -20 -20 -20 -20 -20 -20 -20 -20 -20 -20 -20 -20 -20 -20 -20 -20
-0 -14 -20 15 2 -19 -19 -0 4 -14 8 7 10 16 14 -5 14 -12 -11 -20 -16 -13 -5 -10 -20 -20 -20 -20 -20 -20 -20 -20 -20 -20 -20 -20 -20 -20 -20 -20 -20 -20 -20
17 19 -3 -20 10 -20 -19 -11 8 19 25 15 8 11 -7 -16 -2 -17 -20 -16 -19 -3 -2 -5 -16 -20 -20 -20 -20 -20 -13 -20 -12 -20 -16 -20 -20 -20 -20 -20 -20 -20 -20
-19 -20 -12 9 4 8 16 18 14 -1 2 9 -20 8 -5 -12 -20 -20 -20 6 -2 -12 2 9 9 9 -12 -14 1 9 2 11 10 -20 12 -20 -20 -20 -19 -20 -20 -20 -20
-2 -0 15 3 -3 1 -12 -10 -15 -13 -14 -20 -20 4 -20 -20 -20 -17 -20 -20 -13 6 -13 6 -14 -20 -20 -20 -20 -20 14 13 -20 -20 19 13 -20 -3 -16 -20 -20 -20 -20
5 1 11 12 -18 4 12 -20 -20 -20 -20 -20 -20 -20 -20 -20 -20 -20 -2 5 -18 11 0 -20 -20 -20 -20 -20 -20 -14 1 14 19 -20 2 13 -20 -20 -20 -20 -20 -20 -20
-13 -16 -20 -20 -20 -20 -20 -20 -19 -20 -20 -20 -20 -20 -20 -20 -20 -20 -20 -20 -20 -20 -20 -20 -20 -20 -20 -20 -20 -3 17 17 13 12 -0 -20 -20 -20 -20 -20 -20 -20 -20
-20 -20 -20 -20 -20 -19 -16 -20 -20 -20 -20 -20 -20 -20 -20 -20 -20 -20 -20 -20 -20 -20 -20 -20 -20 -20 -20 -15 -4 3 10 14 -0 -20 -20 -20 -20 -20 -20 -20 -20 -20 -20
-20 -20 -20 -20 -20 -20 -20 -20 -20 -20 -20 -20 -20 -20 -20 -20 -20 -20 -20 -20 -20 -20 -20 -20 -20 -20 -20 -20 -8 9 9 13 -16 -20 -20 -20 -20 -20 -20 -20 -20 -20 -20
-20 -20 -20 -20 -20 -20 -20 -20 -20 -20 -20 -20 -20 -20 -20 -20 -20 -20 -20 -20 -20 -20 -20 -20 -20 -20 -20 -20 -20 -20 -12 13 8 -20 -20 11 -20 -20 -20 -20 -20 -20 -20

GFSMA_prec_radar_063.txt.gz
Reflectivity
-20 -13 4 -14 -2 -20 -20 -20 -12 -20 -17 -20 -20 -20 -20 -20 -20 -20 -20 -20 -20 -20 -20 -20 -20 -20 -20 -20 -20 -20 -20 -20 -20 -20 -20 -20 -20 -20 -20 -20 -20 -20 -20
-20 -1 -4 -16 -3 -20 -20 -20 -20 -20 -20 -20 -20 -20 -20 -20 -20 -20 -20 -20 -20 -20 -20 -20 -20 -20 -20 -20 -20 -20 -20 -20 -20 -20 -20 -20 -20 -20 -20 -20 -20 -20 -20
-20 -2 9 2 -20 -13 -8 -20 -20 -20 -20 -20 -20 -20 -20 -20 -20 -20 -20 -20 -20 -20 -20 -20 -20 -20 -20 -20 -20 -20 -20 -20 -20 -20 -20 -20 -20 -20 -20 -20 -20 -20 -20
10 10 12 -18 -20 -20 -20 -20 -20 -20 -20 -20 -20 -20 -20 -20 -20 -20 -20 -20 -20 -20 -20 -20 -20 -20 -20 -20 -20 -20 -20 -20 -20 -20 -20 -20 -20 -20 -20 -20 -20 -20 -20
10 17 -13 -20 -20 -20 -20 -20 -20 -20 -20 -20 -20 -20 -20 -20 -20 -20 -20 -20 -20 -20 -20 -20 -20 -20 -20 -20 -20 -20 -20 -20 -20 -20 -20 -20 -20 -20 -20 -20 -20 -20 -20
13 -19 -19 -1 -13 -20 -20 -20 -20 -20 -20 -20 -20 -20 -20 -20 -20 -20 -20 -20 -20 -20 -20 -20 -20 -20 -20 -20 -20 -20 -20 -20 -20 -20 -20 -20 -20 -20 -20 -20 -20 -20 -20
3 -20 -20 -20 -20 -20 -20 -20 -20 -20 -20 -20 -20 -20 -20 -20 -20 -20 -20 -20 -20 -20 -20 -20 -20 -20 -20 -20 -20 -20 -20 -20 -20 -20 -20 -20 -20 -20 -20 -20 -20 -20 -20
-14 -7 -19 -19 -20 -5 -15 -20 -20 -20 -20 -20 -20 -20 -20 -20 -20 -20 -20 -20 -20 -20 -20 -20 -20 -20 -20 -20 -20 -20 -20 -20 -20 -20 -20 -20 -20 -20 -20 -20 -20 -20 -20
-7 -3 -7 -16 -20 -20 -18 -20 -20 -16 11 -14 -20 -20 -20 -20 -20 -20 -20 -20 -11 -12 -13 -17 -15 -20 -20 -20 -20 -20 -20 -20 -20 -20 -20 -20 -20 -20 -20 -20 -20 -20 -20
-20 -20 -20 -17 -8 -20 -20 -20 -15 -20 16 -20 24 -20 -20 -20 -11 0 -20 -20 -15 -20 5 22 14 -20 -20 -20 13 4 -20 -20 -20 -20 -20 -20 -20 -20 -20 -20 -20 -20 -20
-16 -20 -20 -20 -20 -20 -20 -20 -20 -20 11 -8 17 -14 -20 -20 9 13 -10 -20 12 9 -1 11 -0 4 -20 -12 -9 10 -18 -20 -20 -20 -20 -20 -20 -20 -20 -20 -20 -20 -20
-20 -20 -20 -20 -20 -20 -20 -20 -7 16 -1 11 11 18 -0 -8 -6 28 6 -19 21 10 1 26 25 -5 5 -19 17 16 5 -0 -20 -20 -20 -20 -20 -20 -20 -20 -20 -20 -20
-20 -20 -20 -20 -20 -20 -20 -20 26 23 19 30 15 17 -12 -2 19 2 21 -17 13 -8 1 0 -12 -3 -15 -14 -2 22 5 -20 -14 -6 -17 -20 -20 -20 -20 -20 -20 -20 -20
-20 -20 -20 -20 -20 -20 -20 1 26 31 41 26 25 -16 -4 -6 31 -7 -18 -17 -20 -6 5 -20 -17 6 -19 -20 -7 7 3 12 8 -15 -20 -20 -20 -20 -20 -20 -20 -20 -20
-20 -20 -20 -20 -20 -20 -10 24 29 30 25 7 14 19 -20 15 13 -15 -20 -20 -16 12 1 2 13 -6 -20 -20 -20 -20 -20 -20 -20 -20 -20 -20 -20 -20 -20 -20 -20 -20 -20
10 23 26 -13 -20 -20 -4 28 38 24 -3 -20 -20 -17 -20 1 2 -20 -20 -12 -1 7 -1 -16 -20 -19 -20 -20 -20 -20 -20 -20 -20 -20 -20 -20 -20 -20 -20 -20 -20 -20 -20
20 25 30 11 -20 22 40 29 -1 -3 8 -20 -20 -18 -6 -20 -15 -11 -13 -2 -18 -13 -20 -18 -15 -20 -20 -20 -13 -20 -20 -20 -20 -20 -20 -20 -20 -9 -1 -8 9 15 -20
21 34 32 18 6 20 28 -18 -17 10 -20 6 -4 10 0 11 -20 -18 2 21 -8 2 6 -20 -20 -20 -11 -19 -20 -20 -20 -20 -20 -20 -20 -20 -14 -20 -10 -16 -20 -2 -17
30 23 30 25 8 23 -17 -5 -20 6 15 -17 -7 -0 12 5 -1 21 -13 -6 -20 -20 -20 -20 -20 -20 -20 -20 -20 -20 -20 -20 -20 -20 -20 -20 -20 -20 -20 -20 -20 -18 -20
-7 26 -20 -20 2 8 1 -20 -20 -20 8 2 -20 -20 -20 -20 5 -15 -10 -2 -20 -20 -20 -20 -20 3 -19 -20 -20 -20 -20 -20 -20 -20 -20 -20 -20 -20 -20 -20 -20 -20 -1
-15 -7 -8 -20 -8 18 18 -20 -20 -9 -10 19 -17 -20 -19 14 8 0 -18 -20 -20 -20 -20 -20 -20 -20 -20 -20 -20 -20 -20 -20 -20 -20 -20 -20 -20 -20 -20 -20 -12 -17 -20
31 -19 -20 -20 19 26 22 -9 -5 13 11 7 -20 -5 -5 7 -1 -15 -20 -20 -20 -20 -20 -20 -20 -20 -20 -20 -20 -20 -20 -20 -20 -20 -4 -20 -20 -20 -20 -20 -20 5 32
26 -6 -18 8 25 23 15 14 16 -2 1 5 -3 -7 -20 -20 -19 -20 -20 -20 -20 -20 -20 -20 -20 -20 -20 -20 -20 -20 -20 -20 -20 -20 -20 -20 -20 -17 -20 0 1 -9 -20
5 -20 16 26 15 11 17 14 14 -11 -16 -20 -20 -20 -20 -20 -20 -20 -20 -20 -20 -20 -20 -20 -20 -20 -20 -20 -20 -20 -20 -20 -20 -20 -3 -8 -10 -6 -20 -20 12 18 -20
18 18 23 18 12 12 16 10 0 -20 -20 -20 -20 -20 -20 -20 -20 -20 -20 -20 -20 -20 -20 -20 -20 -20 -20 -20 -20 -20 -6 -0 -20 -20 -20 -20 -20 -1 -20 -20 -13 13 -20
14 9 20 7 16 -19 -18 -20 -20 -20 -20 -20 -20 -20 -20 -20 -20 -20 -20 -20 -20 -20 -20 -20 -20 -19 -20 -20 -20 -20 -6 -6 -18 -19 -20 -18 -20 9 1 -20 -12 24 -18

GFSMA_prec_radar_066.txt.gz
Reflectivity
-17 -20 -20 -20 -20 -20 -17 4 -20 -20 -20 -20 -20 -20 -20 -20 -20 -20 -20 -20 -20 -20 -20 -20 -20 -20 -20 -20 -20 -20 -20 -20 -20 -20 -20 -20 -20 -20 -20 -20 -20 -20 -20
-20 -20 -20 -18 -20 -20 -20 -18 -19 -20 -20 -20 -20 -20 -20 -20 -20 -20 -20 -20 -20 -20 -20 -18 -20 -20 -20 -20 -20 -20 -20 -20 -20 -20 -20 -20 -20 -20 -20 -20 -20 -20 -20
-20 -20 -4 -20 -20 -20 -19 -15 -20 -20 -20 -20 -20 -20 -20 -20 -20 -20 -20 -20 -20 -20 -20 -20 -20 -20 -20 -20 -20 -20 -20 -20 -20 -20 -20 -20 -20 -20 -20 -20 -20 -20 -20
-20 -19 -5 -10 -20 -16 -19 -20 -20 -20 -20 -20 -20 -20 -20 -20 -20 -20 -20 -20 -20 -20 -20 -20 -20 -20 -20 -20 -20 -20 -20 -20 -20 -20 -20 -20 -20 -20 -20 -20 -20 -20 -20
5 -14 13 -13 -20 4 -6 -20 -20 -20 -20 -20 -20 -20 -20 -20 -20 -20 -20 -20 -20 -20 -20 -20 -20 -20 -20 -20 -20 -20 -20 -20 -20 -20 -20 -20 -20 -20 -20 -20 -20 -20 -20
14 -9 14 -16 7 -4 -15 -14 -20 -20 -20 -20 -18 -20 -20 -20 -20 -20 -20 -20 -20 -20 -20 -20 -20 -20 -20 -20 -20 -20 -20 -20 -20 -20 -20 -20 -20 -20 -20 -20 -20 -20 -20
14 19 16 6 10 2 -20 -20 -20 -20 -20 -20 -20 -20 -20 -20 -20 -20 -20 -20 -20 -20 -20 -20 -20 -20 -20 -20 -20 -20 -20 -20 -20 -20 -20 -20 -20 -20 -20 -20 -20 -20 -20
22 22 -2 -6 17 10 -5 -20 -20 12 -18 -20 -20 -20 -20 -20 -20 -20 -20 -20 -20 -20 -19 -19 -20 -10 -19 -20 -20 -20 -20 -20 -20 -20 -20 -20 -20 -20 -20 -20 -20 -20 -20
8 0 1 25 25 4 -20 -20 -20 -20 -20 -5 -20 -17 -20 -20 -20 -20 -20 -20 3 -20 -20 -15 -9 0 16 -1 -4 -20 -20 -20 -20 -20 -20 -20 -20 -20 -20 -20 -20 -20 -20
-2 -10 11 23 20 25 -18 -13 -20 -20 -20 -20 6 -20 -20 -20 -20 -20 -15 -20 -17 -20 -20 18 7 -19 3 -6 -8 -20 -20 -20 -20 -20 -20 -20 -20 -20 -20 -20 -20 -20 -20
-13 -8 -20 -20 -20 -20 -20 -14 -20 -20 -20 -20 15 -20 -20 -20 -20 5 -20 -18 -20 16 -20 -12 18 -16 15 20 9 6 9 -20 2 2 -20 -16 -20 -20 -20 -20 -20 -20 -20
-20 -20 -20 -20 -20 -20 -20 -20 -20 -20 19 15 -5 17 5 -11 3 9 4 -20 11 -16 -11 -1 2 3 -10 18 9 11 0 -10 7 1 6 -11 -17 -1 -9 -20 -20 -20 -20
-20 -20 -20 -20 -20 -20 -20 -20 -20 -20 -8 26 21 20 42 -1 21 21 -20 27 9 -1 -20 -20 -20 -4 -6 -20 -12 1 11 5 4 11 4 2 4 -6 -20 -2 -20 -20 -20
-20 -20 -20 -20 -20 -20 -20 -20 -20 -20 -1 9 28 39 32 16 15 -5 16 12 25 -2 -20 -20 -20 -13 -8 9 17 -2 -3 10 -17 -13 5 6 -2 -2 3 15 20 10 -20
-20 -20 -20 -20 -20 -20 -20 -20 -20 -5 20 22 26 -4 15 1 19 4 -20 26 11 -20 -20 0 -20 -20 -12 -20 -20 -20 -20 -20 -20 -5 -3 -8 -1 -20 8 5 4 15 12
-20 -20 -20 -20 -20 -20 -20 -20 -20 -20 17 27 11 -11 -20 22 5 5 -1 23 -20 -20 -20 -20 -20 -20 -20 -20 -20 -20 -20 -16 -14 -5 -12 -20 -20 -20 -20 -4 9 6 15
-19 -20 -19 -19 -8 14 27 14 6 -9 24 11 25 -20 7 -9 6 -11 -18 -20 -2 -20 -20 -17 -8 -20 -16 -20 -20 -20 -20 -20 -20 -20 -20 -20 -20 -20 -20 -20 -20 -19 -11
9 -18 13 36 24 31 21 19 8 23 10 -4 -20 8 12 -17 -20 6 -20 6 8 -20 -16 -20 -20 -20 -20 -20 -20 -20 -20 -20 -20 -20 -20 -20 -20 -20 -20 -20 -20 -20 -20
3 15 -17 -10 11 30 30 8 -8 9 5 -15 -20 -16 12 -11 -9 17 -17 -20 -15 -19 -20 -20 -4 -20 1 -20 -20 -20 -20 -20 -20 -20 -20 -20 -20 -20 -20 -20 -20 -20 -20
12 15 10 27 20 27 7 -12 25 8 9 -17 -9 -7 -2 12 -16 -20 -20 2 -20 -11 -14 6 -20 -20 -20 -20 -20 -20 -20 -20 -20 -20 -20 -20 -20 -20 -20 -20 -20 -20 -20
-8 -16 -20 -20 -10 -17 -20 -18 -4 17 13 14 -15 11 8 12 20 -7 -4 -7 4 -12 11 -20 -20 -20 -20 -20 -20 -20 -20 -20 -20 -20 -20 -20 -20 -20 -20 -20 -20 -20 -20
-19 -19 -20 28 2 31 30 -3 -17 22 11 11 15 6 10 15 12 11 15 14 9 0 -20 -20 -20 -20 -20 -20 -20 -20 -20 -20 -20 -20 -20 -20 -20 -20 -20 -20 -20 -20 -20
27 -16 18 7 21 -6 18 25 9 12 23 13 19 15 -11 14 14 -3 18 11 -3 -20 -20 -20 -20 -20 -20 -20 -20 -20 -20 -20 -20 -20 -20 -20 -20 -20 -20 -20 -20 -20 -20
24 24 27 18 22 6 22 21 23 8 21 16 13 -13 6 -5 13 9 -17 -20 -20 -20 -20 -20 -20 -20 -20 -20 -20 -20 -20 -20 -20 -20 -20 -9 -20 -20 -20 -20 -20 -20 -13
16 25 15 13 9 9 17 11 9 -2 12 3 -12 -0 0 -3 -2 -20 -20 -20 -20 -20 -20 -20 -20 -20 -20 -20 -20 -20 -20 -20 -20 -20 -20 -5 -20 -20 -20 -20 -20 -20 -20
18 2 -1 5 16 17 21 16 15 -20 -20 -10 2 -20 -3 -20 -20 -20 -20 -20 -20 -20 -20 -15 -10 -6 -11 -14 -9 -9 -20 -20 -20 -20 -20 -20 -20 -6 -1 -20 -20 -20 -20

GFSMA_prec_radar_072.txt.gz
Reflectivity
-8 -20 8 -20 -20 -20 -20 -20 -20 -20 -20 -20 -20 -20 -20 -20 -20 -20 -20 -20 -20 -2 -5 -20 -20 -20 -20 -20 -20 -20 -20 -20 -20 -20 -20 -20 -20 -20 -20 -20 -20 -20 -20
4 -5 3 -20 -20 -20 -20 -20 -20 -20 -20 -20 -20 -20 -20 -20 -20 -20 -20 -20 -20 -20 -5 -20 -20 -20 -20 -20 -20 -20 -20 -20 -20 -20 -20 -20 -20 -20 -20 -20 -20 -20 -20
-8 1 4 -3 -20 -20 -20 -20 -20 -20 -20 -20 -20 -20 -20 -20 -20 -20 -20 -20 -20 -20 -20 -18 -4 -15 -20 -20 -20 -20 -20 -20 -20 -20 -20 -20 -20 -20 -20 -20 -20 -20 -20
9 13 10 -14 -20 -20 -20 -20 -20 -17 -15 -20 -20 -20 -20 -20 -20 -20 -20 -20 -20 -20 -20 -20 -20 -20 -20 -20 -20 -20 -20 -20 -20 -20 -20 -20 -20 -20 -20 -20 -20 -20 -20
8 7 4 -14 -20 -20 -20 -20 -20 -20 -20 -20 -20 -20 -20 -20 -20 -20 -20 -20 -20 -20 -20 -20 -20 -20 -20 -20 -20 -20 -20 -20 -20 -20 -20 -20 -20 -20 -20 -20 -20 -20 -20
2 10 -19 -16 -20 -20 -20 -20 -20 -20 -20 -20 -20 -20 -20 -20 -20 -20 -20 -20 -20 -20 -20 -20 -20 -20 -20 -20 -20 -20 -20 -20 -20 -20 -20 -20 -20 -20 -20 -20 -20 -20 -20
22 4 -20 -20 -20 -16 -18 -20 -20 -20 -20 -20 -20 -20 -20 -20 -20 -20 -20 -20 -20 -20 -20 -20 -20 -20 -20 -20 -20 -20 -20 -20 -20 -20 -20 -20 -20 -20 -20 -20 -20 -20 -20
-20 -20 7 8 2 12 0 -20 -3 -1 -13 -6 -11 -20 -19 -20 -20 -20 -20 -20 -20 -20 -20 -20 -20 -20 -20 -20 -20 -16 -20 -20 -20 -20 -20 -20 -20 -20 -20 -20 -20 -20 -20
-20 -20 21 27 25 7 5 -20 -20 -4 -11 -16 -11 8 -20 -20 6 -20 -20 -20 -20 -20 -20 -20 -20 -20 -19 -19 -20 -20 -20 -20 -20 -20 -20 1 -18 -20 -20 -20 -20 -20 -20
-9 -11 27 22 24 3 -20 -18 -17 3 -19 18 -15 -20 -20 -20 -20 19 -20 -20 -20 -20 -20 9 -20 -20 -20 -20 -20 -20 -20 -20 -14 -20 -19 -20 -20 7 11 13 2 -20 -20
6 -14 24 27 23 -1 -3 22 20 -20 -20 7 -12 30 -20 -20 -20 -20 -12 16 -20 -20 -20 -6 33 11 6 -9 -20 -20 -20 -20 -20 -20 -12 -20 -20 -20 -20 17 13 16 14
27 13 24 14 22 -4 3 25 -13 -20 -20 1 24 -8 4 -20 -8 -18 -3 2 21 -6 -10 25 8 20 -19 -18 -17 -20 -20 -20 -20 -20 -20 -20 -20 -20 -20 -20 1 19 21
17 8 11 -3 -1 -14 1 -9 2 24 -20 -20 28 -20 -20 -20 -20 -20 -20 -20 -15 26 32 33 33 24 -20 -20 -10 -19 -20 -20 -20 -20 -20 -17 -20 -20 -20 -20 -7 -16 -1
-20 -20 -19 -19 -20 -20 -8 24 19 -20 -16 -14 -20 -20 -20 -20 -20 -20 -20 -20 -3 19 17 11 14 -17 -20 -10 1 -20 -20 -20 -20 -20 -20 -19 -20 -20 -20 -20 -20 -20 -20
-20 -20 -20 -20 -20 -20 -2 22 -15 -20 -20 -20 -20 -20 -19 -6 8 -20 -19 8 23 -9 -13 7 -1 3 -17 11 -20 -20 -20 -20 -20 -20 -20 -20 -20 -20 -20 -20 -20 -20 -20
-20 -20 -20 -20 -8 -20 -20 -20 -20 -20 -4 12 2 -20 -15 0 4 1 2 -13 -7 -20 23 -20 -20 -20 -1 -5 -19 -20 -20 -20 -20 -20 -20 -20 -20 -20 -20 -20 -20 -20 -20
-20 -20 -20 -20 -20 -20 -20 -20 -20 -20 -20 -13 11 -15 -20 6 4 -20 28 20 22 8 22 -20 -9 -18 -19 -13 -20 -20 -20 -20 -20 -20 -20 -20 -20 -20 -20 -20 -20 -20 -20
-20 -20 -20 -20 -20 -20 -20 -20 -20 -20 -20 -20 -20 -3 -20 3 20 17 43 35 18 23 19 -0 -15 -9 -17 -20 -20 -20 -20 -20 -20 -20 -20 -20 -20 -20 -20 -20 -20 -20 -20
-20 -20 -20 -20 -20 -20 -20 -20 -20 -15 -13 3 -1 16 20 17 34 35 36 30 25 27 16 -2 -5 11 -18 -20 -20 -20 -13 -20 -20 -20 -20 -20 -20 -20 -20 -20 -20 -20 -20
-20 -20 -20 -20 -20 -20 -20 -20 8 13 -19 29 20 22 26 35 34 39 30 19 20 8 13 -2 4 -20 -20 -20 -20 -18 -20 -20 -20 -20 -20 -20 -20 -20 -20 -20 -20 -20 -20
-20 -20 -20 -20 -20 -20 -20 -17 -3 12 -20 9 25 25 38 19 26 21 25 3 -6 -7 -5 -5 -20 -20 -20 -20 -11 -20 -20 -20 -20 -20 -20 -20 -20 -20 -20 -20 -20 -20 -20
-20 -20 -20 -20 -20 -20 -20 13 -17 -20 -20 18 16 11 -1 12 20 22 19 14 11 -1 -10 -20 -20 -20 -20 -20 -20 -20 -20 -20 -20 -20 -20 -20 -20 -20 -20 -20 -20 -20 -20
-20 -20 -20 -20 -18 -8 -12 -1 -1 -20 -11 -20 -20 14 -18 5 22 -4 12 16 23 21 16 -15 -20 -20 -20 -20 -20 -20 -20 -20 -20 -20 -20 -20 -20 -20 -20 -20 -20 -20 -20
-20 -20 -9 1 10 -20 -15 -3 3 -6 4 1 24 20 11 5 11 5 1 15 19 18 15 -11 -20 -20 -20 -20 -20 -20 -20 -20 -20 -20 -20 -20 -20 -20 -20 -20 -20 -20 -20
-20 -20 -15 -17 19 16 20 22 17 -5 -3 12 16 16 9 15 26 26 20 34 36 12 7 -3 1 -7 -20 -20 -20 -20 -20 -20 -20 -20 -20 -20 -20 -20 -20 -20 -20 -20 -20
-20 -20 -5 8 20 5 22 14 8 -18 -13 13 11 19 27 27 29 28 12 16 4 -5 -20 -20 -20 -20 -20 -20 -20 -20 -20 -20 -20 -20 -20 -20 -20 -20 -20 -20 -20 -20 -20

GFSMA_prec_radar_075.txt.gz
Reflectivity
24 16 22 -19 -20 -20 -20 -20 -20 -20 -20 -20 -20 -20 -20 -20 -20 -20 -20 -20 -15 -3 10 -10 -20 -20 -20 -20 -20 -20 -20 -20 -20 -20 -20 -20 -20 -20 -20 -20 -20 -20 -20
9 24 22 -2 -19 -20 -20 -20 -20 -20 -20 -20 -20 -20 -20 -20 -20 -20 -20 -20 -20 -5 -0 9 -20 -20 -20 -20 -20 -20 -20 -20 -20 -20 -20 -20 -20 -20 -20 -20 -20 -20 -20
29 18 -4 6 -20 -20 -20 -20 -20 -20 -20 -20 -20 -20 -20 -20 -20 -20 -20 -20 -20 -20 -19 -7 -20 -20 -20 -20 -20 -20 -20 -20 -20 -20 -20 -20 -20 -20 -20 -20 -20 -20 -20
15 14 -17 -10 -16 -20 -20 -20 -20 -20 -20 -20 -20 -20 -20 -20 -20 -20 -20 -20 -20 -20 -20 -20 -5 -20 -18 -20 -20 -20 -20 -20 -20 -20 -20 -20 -20 -20 -20 -20 -20 -20 -20
15 4 1 -6 -3 -12 6 -20 -20 -20 -20 -20 -20 -20 -20 -20 -20 -20 -20 -20 -20 -20 -20 -20 -20 -20 -20 -20 -20 -20 -20 -20 -20 -20 -20 -20 -20 -20 -20 -20 -20 -20 -20
-8 -19 -20 -11 -14 19 14 -20 -20 -20 -20 -20 -20 -20 -20 -20 -20 -20 -20 -20 -20 -20 -20 -20 -20 -20 -20 -20 -20 -20 -20 -20 -20 -20 -20 -20 -20 -20 -20 -20 -20 -20 -20
4 -12 -20 -3 21 13 -20 -20 -20 -20 -20 -20 -20 -20 -20 -20 -20 -20 -20 -20 -20 -20 -20 -20 -20 -20 -20 -20 -20 -20 -20 3 5 -20 -20 -20 -20 -20 -20 -20 -20 -20 -20
-16 -16 -5 -18 -20 -20 -20 -20 -20 -20 -20 -20 -20 -20 -18 -13 -20 -20 -20 -20 -20 -20 -20 -20 -20 -20 -20 -20 -20 -20 -20 -20 -5 -1 -9 -20 -20 -20 -20 -20 -20 -20 -20
-2 -9 -17 -15 -10 -19 -12 -7 -20 -20 -20 -20 -20 24 19 -5 -19 -17 -20 -20 -20 -20 -20 -20 -20 -20 -20 -20 -20 -20 -20 -20 -20 -20 -20 7 -20 -20 -20 -20 -20 -20 -18
8 -19 -20 -20 -20 -20 -20 -20 -20 -20 28 25 -12 -20 -20 12 32 28 15 -20 -20 -20 -20 -20 -20 -20 -20 -20 -20 5 -20 -20 -20 -20 -20 -20 -3 2 6 5 -10 4 8
11 -16 -20 -20 -20 -20 -15 -20 -20 22 29 26 16 9 -11 15 -20 26 -12 -10 -20 -20 -20 -20 -20 -20 -19 -18 6 -20 -20 -20 -20 -20 -20 -20 -20 -20 -20 3 11 14 16
17 15 -13 -20 -7 5 15 -6 -14 9 -0 25 18 18 -13 -9 -20 -3 20 17 23 -6 -20 -20 -20 -20 -2 -12 16 -14 -20 -20 -20 -20 -19 -20 -20 -9 -20 -20 -20 -20 -14
14 2 -2 -14 -4 5 -3 -6 -5 -6 -20 -3 19 22 26 -20 -20 -20 3 -20 4 14 -20 -20 -20 -20 -20 14 6 -16 -12 -20 -20 -20 -20 -20 -20 -20 -20 -20 -20 -20 -20
-20 -20 -19 4 3 26 23 1 8 10 -9 3 6 -15 -15 -20 -20 -11 -20 17 7 -19 -4 -20 -20 -19 -20 -20 9 -19 -15 -2 -20 -20 -20 -20 -20 -20 -20 -20 -20 -20 -20
-20 -20 -20 -4 10 6 17 12 -19 -19 -20 5 -20 -19 23 -19 -20 18 19 -19 20 4 -19 -20 -20 -20 -20 -20 -20 -20 -20 -20 -20 -20 -20 -20 -20 -20 -20 -20 -20 -20 -20
-20 -20 -12 -20 -20 -20 6 -20 -20 -20 -18 -20 -20 23 -3 16 -4 22 23 -12 1 -20 -7 -20 -12 -15 -3 -20 -20 -20 -20 -15 -20 -20 -20 -20 -20 -20 -20 -20 -20 -20 -20
-20 -20 -20 -20 -20 -20 -20 -4 -19 -20 -20 14 -6 18 -8 -3 17 22 24 21 12 -12 -17 -0 17 23 8 -11 -16 1 -18 -20 -20 -20 -20 -20 -20 -20 -20 -20 -20 -20 -20
-20 -20 -20 -20 -20 -20 -20 -19 -20 -20 -20 -18 2 17 -20 8 20 21 23 -18 -4 6 5 28 26 28 27 25 5 -20 -20 -20 -20 -20 -20 -20 -20 -20 -20 -20 -20 -20 -20
-7 -17 -3 -12 -20 -20 -20 -20 -20 -20 -20 -20 -20 -20 -20 -20 9 -7 -1 8 13 7 17 30 24 21 27 26 -6 -12 -19 -20 -20 -19 -20 -20 -20 -20 -20 -20 -20 -20 -20
-20 -4 -2 -15 -16 -20 -20 -20 -20 -12 -0 0 -9 -10 -19 -0 -20 0 33 23 29 26 20 20 27 18 15 9 3 3 -7 -20 -20 -20 -3 -20 -20 -20 -20 -20 -20 -20 -20
-20 -20 -20 -20 -19 -20 -20 -20 -20 -20 -20 3 3 6 -10 4 -12 31 27 24 25 20 26 16 27 13 32 12 19 5 -20 -20 -20 -20 -20 -20 -20 -20 -20 -20 -20 -20 -20
-20 -20 -20 -20 -20 -20 -20 -20 -20 -20 -20 4 9 -15 0 3 12 30 9 15 7 24 34 31 34 9 33 18 11 -15 -20 -20 -20 -20 -20 -20 -20 -20 -20 -20 -20 -20 -20
-20 -20 -20 -20 -20 -20 -20 -20 -20 -20 -20 -18 -16 -20 -20 -9 32 6 28 22 14 24 19 5 15 26 29 35 11 -4 -20 -20 -20 -20 -20 -20 -20 -20 -20 -20 -20 -20 -20
-20 -20 -20 -20 -20 -20 -20 8 -15 -20 -17 -16 -20 -20 -20 1 28 28 20 23 16 24 39 23 7 11 38 38 25 -2 -20 -20 -20 -20 -20 -20 -20 -20 -20 -20 -20 -20 -20
-20 -18 1 1 1 -6 6 14 14 -20 -20 -10 -5 -6 11 20 29 14 17 28 34 32 27 37 33 34 29 26 14 -6 -20 -20 -20 -20 -20 -20 -20 -20 -20 -20 -20 -20 -20
-20 -20 -20 -20 9 15 5 10 18 17 25 27 28 31 33 25 31 26 7 13 10 17 20 21 31 31 28 23 15 6 -19 -20 -20 -20 -20 -20 -20 -20 -20 -20 -20 -20 -20